QPF
0.00 0.00 0.00 0.00 0.00 0.00 0.00 0.00 0.00 0.00 0.00 0.00 0.00 0.00 0.00 0.00 0.00 0.00 0.00 0.00 0.00 0.00 0.00 0.00 0.00 0.00 0.00 0.00 0.00 0.00 0.00 0.00 0.00 0.00 0.00 0.00 0.00 0.00 0.00 0.00 0.00 0.00 0.00 0.00
0.00 0.00 0.00 0.00 0.00 0.00 0.00 0.00 0.00 0.00 0.00 0.00 0.00 0.00 0.00 0.00 0.00 0.00 0.00 0.00 0.00 0.00 0.00 0.00 0.00 0.00 0.00 0.00 0.00 0.00 0.00 0.00 0.00 0.00 0.00 0.00 0.00 0.00 0.00 0.00 0.00 0.00 0.00 0.00
0.00 0.00 0.00 0.00 0.00 0.00 0.00 0.00 0.00 0.00 0.00 0.00 0.00 0.00 0.00 0.00 0.00 0.00 0.00 0.00 0.00 0.00 0.00 0.00 0.00 0.00 0.00 0.00 0.00 0.00 0.00 0.00 0.00 0.00 0.00 0.00 0.00 0.00 0.00 0.00 0.00 0.00 0.00 0.00
0.00 0.00 0.00 0.00 0.00 0.00 0.00 0.00 0.00 0.00 0.00 0.00 0.00 0.00 0.00 0.00 0.00 0.00 0.00 0.00 0.00 0.00 0.00 0.00 0.00 0.00 0.00 0.00 0.00 0.00 0.00 0.00 0.00 0.00 0.00 0.00 0.00 0.00 0.00 0.00 0.00 0.00 0.00 0.00
0.00 0.00 0.00 0.00 0.00 0.00 0.00 0.00 0.00 0.00 0.00 0.00 0.00 0.00 0.00 0.00 0.00 0.00 0.00 0.00 0.00 0.00 0.00 0.00 0.00 0.00 0.00 0.00 0.00 0.00 0.00 0.00 0.00 0.00 0.00 0.00 0.00 0.00 0.00 0.00 0.00 0.00 0.00 0.00
0.00 0.00 0.00 0.00 0.00 0.00 0.00 0.00 0.00 0.00 0.00 0.00 0.00 0.00 0.00 0.00 0.00 0.00 0.00 0.00 0.00 0.00 0.00 0.00 0.00 0.00 0.00 0.00 0.00 0.00 0.00 0.00 0.00 0.00 0.00 0.00 0.00 0.00 0.00 0.00 0.00 0.00 0.00 0.00
0.00 0.00 0.00 0.00 0.00 0.00 0.00 0.00 0.00 0.00 0.00 0.00 0.00 0.00 0.00 0.00 0.00 0.00 0.00 0.00 0.00 0.00 0.00 0.00 0.00 0.00 0.00 0.00 0.00 0.00 0.00 0.00 0.00 0.00 0.00 0.00 0.00 0.00 0.00 0.00 0.00 0.00 0.00 0.00
0.00 0.00 0.00 0.00 0.00 0.00 0.00 0.00 0.00 0.00 0.00 0.00 0.00 0.00 0.00 0.00 0.00 0.00 0.00 0.00 0.00 0.00 0.00 0.00 0.00 0.00 0.00 0.00 0.00 0.00 0.00 0.00 0.00 0.00 0.00 0.00 0.00 0.00 0.00 0.00 0.00 0.00 0.00 0.00
0.00 0.00 0.00 0.00 0.00 0.00 0.00 0.00 0.00 0.00 0.00 0.00 0.00 0.00 0.00 0.00 0.00 0.00 0.00 0.00 0.00 0.00 0.00 0.00 0.00 0.00 0.00 0.00 0.00 0.00 0.00 0.00 0.00 0.00 0.00 0.00 0.00 0.00 0.00 0.00 0.00 0.00 0.00 0.00
0.00 0.00 0.00 0.00 0.00 0.00 0.00 0.00 0.00 0.00 0.00 0.00 0.00 0.00 0.00 0.00 0.00 0.00 0.00 0.00 0.00 0.00 0.00 0.00 0.00 0.00 0.00 0.00 0.00 0.00 0.00 0.00 0.00 0.00 0.00 0.00 0.00 0.00 0.00 0.00 0.00 0.00 0.00 0.00
0.00 0.00 0.00 0.00 0.00 0.00 0.00 0.00 0.00 0.00 0.00 0.00 0.00 0.00 0.00 0.00 0.00 0.00 0.00 0.00 0.00 0.00 0.00 0.00 0.00 0.00 0.00 0.00 0.00 0.00 0.00 0.00 0.00 0.00 0.00 0.00 0.00 0.00 0.00 0.00 0.00 0.00 0.00 0.00
0.00 0.00 0.00 0.00 0.00 0.00 0.00 0.00 0.00 0.00 0.00 0.00 0.00 0.00 0.00 0.00 0.00 0.00 0.00 0.00 0.00 0.00 0.00 0.00 0.00 0.00 0.00 0.00 0.00 0.00 0.00 0.00 0.00 0.00 0.00 0.00 0.00 0.00 0.00 0.00 0.00 0.00 0.00 0.00
0.00 0.02 0.02 0.01 0.00 0.00 0.00 0.00 0.00 0.00 0.00 0.00 0.00 0.00 0.00 0.00 0.00 0.00 0.00 0.00 0.00 0.00 0.00 0.00 0.00 0.00 0.00 0.00 0.00 0.00 0.00 0.00 0.00 0.00 0.00 0.00 0.00 0.00 0.00 0.00 0.00 0.00 0.00 0.00
0.01 0.07 0.02 0.00 0.00 0.00 0.00 0.00 0.00 0.00 0.00 0.00 0.00 0.00 0.00 0.00 0.00 0.00 0.00 0.00 0.00 0.00 0.00 0.00 0.00 0.00 0.00 0.00 0.00 0.00 0.00 0.00 0.00 0.00 0.00 0.00 0.00 0.00 0.00 0.00 0.00 0.00 0.00 0.00
0.02 0.08 0.01 0.00 0.00 0.00 0.00 0.00 0.00 0.00 0.00 0.00 0.00 0.00 0.00 0.00 0.00 0.00 0.00 0.00 0.00 0.00 0.00 0.00 0.00 0.00 0.00 0.00 0.00 0.00 0.00 0.00 0.00 0.00 0.00 0.00 0.00 0.00 0.00 0.00 0.00 0.00 0.00 0.00
0.03 0.06 0.00 0.00 0.00 0.00 0.00 0.00 0.00 0.00 0.00 0.00 0.00 0.00 0.00 0.00 0.00 0.00 0.00 0.00 0.00 0.00 0.00 0.00 0.00 0.00 0.00 0.00 0.00 0.00 0.00 0.00 0.00 0.00 0.00 0.00 0.00 0.00 0.00 0.00 0.00 0.00 0.00 0.00
0.06 0.07 0.06 0.08 0.00 0.01 0.10 0.02 0.00 0.00 0.00 0.00 0.00 0.00 0.00 0.00 0.00 0.00 0.00 0.00 0.00 0.00 0.00 0.00 0.00 0.00 0.00 0.00 0.00 0.00 0.00 0.00 0.00 0.00 0.00 0.00 0.00 0.00 0.00 0.00 0.00 0.00 0.00 0.00
0.04 0.05 0.08 0.10 0.07 0.14 0.07 0.00 0.00 0.00 0.00 0.00 0.00 0.00 0.00 0.00 0.00 0.00 0.00 0.00 0.00 0.00 0.00 0.00 0.00 0.00 0.00 0.00 0.00 0.00 0.00 0.00 0.00 0.00 0.00 0.00 0.00 0.00 0.00 0.00 0.00 0.00 0.00 0.00
0.12 0.11 0.17 0.16 0.11 0.05 0.00 0.00 0.00 0.00 0.00 0.00 0.00 0.00 0.00 0.00 0.00 0.00 0.00 0.00 0.00 0.00 0.00 0.00 0.00 0.00 0.00 0.00 0.00 0.00 0.00 0.00 0.00 0.00 0.00 0.00 0.00 0.00 0.00 0.00 0.00 0.00 0.00 0.00
0.08 0.12 0.16 0.18 0.12 0.06 0.00 0.00 0.00 0.00 0.00 0.00 0.00 0.00 0.00 0.00 0.00 0.00 0.00 0.00 0.00 0.00 0.00 0.00 0.00 0.00 0.00 0.00 0.00 0.00 0.00 0.00 0.00 0.00 0.00 0.00 0.00 0.00 0.00 0.00 0.00 0.00 0.00 0.00
0.03 0.09 0.15 0.13 0.11 0.03 0.00 0.00 0.00 0.00 0.00 0.00 0.00 0.00 0.00 0.00 0.00 0.00 0.00 0.00 0.00 0.00 0.00 0.00 0.00 0.00 0.00 0.00 0.00 0.00 0.00 0.00 0.00 0.00 0.00 0.00 0.00 0.00 0.00 0.00 0.00 0.00 0.00 0.00
0.00 0.02 0.05 0.11 0.13 0.07 0.00 0.00 0.00 0.00 0.00 0.00 0.00 0.00 0.00 0.00 0.00 0.00 0.00 0.00 0.00 0.00 0.00 0.00 0.00 0.00 0.00 0.00 0.00 0.00 0.00 0.00 0.00 0.00 0.00 0.00 0.00 0.00 0.00 0.00 0.00 0.00 0.00 0.00
0.00 0.00 0.01 0.01 0.02 0.00 0.00 0.00 0.01 0.00 0.00 0.00 0.00 0.00 0.00 0.00 0.00 0.00 0.00 0.00 0.00 0.00 0.00 0.00 0.00 0.00 0.00 0.00 0.00 0.00 0.00 0.00 0.00 0.00 0.00 0.00 0.00 0.00 0.00 0.00 0.00 0.00 0.00 0.00
0.00 0.00 0.00 0.02 0.03 0.01 0.02 0.03 0.01 0.00 0.00 0.00 0.00 0.00 0.00 0.00 0.00 0.00 0.00 0.00 0.00 0.00 0.00 0.00 0.00 0.00 0.00 0.00 0.00 0.00 0.00 0.00 0.00 0.00 0.00 0.00 0.00 0.00 0.00 0.00 0.00 0.00 0.00 0.00
0.00 0.00 0.00 0.00 0.01 0.02 0.03 0.02 0.00 0.00 0.00 0.00 0.00 0.00 0.00 0.00 0.00 0.00 0.00 0.00 0.00 0.00 0.00 0.00 0.00 0.00 0.00 0.00 0.00 0.00 0.00 0.00 0.00 0.00 0.00 0.00 0.00 0.00 0.00 0.00 0.00 0.00 0.00 0.00
0.00 0.00 0.00 0.00 0.01 0.01 0.00 0.00 0.00 0.00 0.00 0.00 0.00 0.00 0.00 0.00 0.00 0.00 0.00 0.00 0.00 0.00 0.00 0.00 0.00 0.00 0.00 0.00 0.00 0.00 0.00 0.00 0.00 0.00 0.00 0.00 0.00 0.00 0.00 0.00 0.00 0.00 0.00 0.00
MSLP
1014.86 1014.39 1013.16 1012.77 1012.84 1012.40 1012.38 1012.24 1012.02 1012.02 1013.16 1013.81 1013.14 1012.84 1012.73 1014.15 1015.08 1015.38 1016.30 1017.37 1018.45 1019.58 1020.79 1021.43 1021.78 1021.85 1021.91 1022.19 1022.38 1022.55 1022.68 1022.80 1022.60 1022.56 1022.64 1023.09 1023.82 1024.60 1025.18 1025.61 1025.74 1025.65 1025.72 1025.60
1014.98 1013.54 1012.72 1012.73 1012.86 1012.72 1012.84 1012.58 1012.27 1012.37 1013.35 1013.98 1013.08 1012.45 1012.40 1012.63 1013.73 1014.63 1015.60 1016.79 1018.10 1019.68 1020.70 1021.44 1021.83 1022.13 1022.23 1022.39 1022.40 1022.52 1022.69 1022.79 1022.85 1023.01 1023.22 1023.50 1024.27 1025.09 1025.76 1026.25 1026.44 1026.48 1026.53 1026.47
1013.30 1012.78 1012.86 1013.24 1013.43 1013.38 1012.91 1012.75 1012.54 1012.80 1013.83 1014.14 1013.43 1012.17 1011.75 1011.64 1013.03 1014.51 1015.66 1016.68 1017.89 1019.16 1020.32 1021.36 1021.85 1022.22 1022.58 1022.78 1022.83 1022.82 1022.98 1023.29 1023.52 1023.77 1023.95 1024.23 1024.61 1024.97 1025.56 1026.36 1026.89 1027.22 1027.34 1027.48
1013.44 1012.83 1013.40 1013.60 1013.38 1013.60 1012.93 1012.94 1013.44 1013.59 1014.00 1013.23 1013.44 1011.08 1010.48 1010.73 1012.54 1014.27 1015.75 1016.77 1017.76 1018.82 1020.03 1021.06 1021.76 1022.31 1022.83 1023.23 1023.38 1023.28 1023.47 1023.64 1023.84 1023.78 1024.18 1024.34 1024.70 1025.46 1026.58 1027.17 1027.67 1027.95 1027.99 1027.98
1012.35 1013.16 1013.55 1013.48 1013.31 1013.86 1013.69 1013.96 1014.16 1014.26 1014.20 1013.94 1013.41 1013.08 1009.79 1010.46 1011.79 1013.06 1014.92 1016.44 1017.49 1018.62 1019.72 1020.76 1021.54 1022.31 1022.96 1023.34 1023.54 1023.74 1023.93 1024.12 1024.27 1024.43 1024.74 1024.98 1025.65 1026.24 1026.94 1027.60 1028.24 1028.63 1028.86 1028.84
1012.84 1013.62 1013.54 1013.41 1014.20 1014.29 1014.70 1014.98 1015.27 1015.30 1015.05 1013.32 1013.00 1012.68 1008.74 1009.64 1010.26 1011.74 1014.17 1015.96 1017.09 1018.34 1019.47 1020.58 1021.68 1022.55 1023.17 1023.74 1023.81 1023.99 1024.23 1024.59 1024.85 1025.12 1025.54 1025.99 1026.35 1026.93 1027.23 1027.76 1028.34 1028.89 1029.23 1029.61
1012.82 1012.86 1013.48 1013.96 1014.39 1015.13 1014.93 1015.09 1015.13 1014.92 1014.90 1012.76 1012.24 1011.61 1008.88 1009.30 1010.56 1011.32 1013.25 1015.31 1016.86 1018.35 1019.55 1020.66 1021.77 1022.51 1023.21 1023.78 1024.08 1024.37 1024.65 1025.05 1025.30 1025.58 1025.89 1026.28 1026.82 1027.48 1027.85 1028.15 1028.46 1028.96 1029.50 1030.08
1011.15 1011.33 1012.06 1013.00 1012.45 1013.00 1014.17 1014.21 1014.16 1014.03 1013.96 1013.10 1013.24 1010.86 1009.43 1009.94 1011.06 1012.18 1013.33 1015.13 1016.70 1018.11 1019.29 1020.41 1021.44 1022.25 1023.03 1023.71 1024.17 1024.53 1024.96 1025.35 1025.76 1026.17 1026.59 1026.94 1027.15 1027.81 1028.35 1028.78 1028.90 1029.05 1029.60 1030.21
1010.30 1010.78 1011.57 1012.47 1012.74 1012.91 1014.01 1014.13 1013.90 1014.50 1015.13 1014.20 1011.54 1010.24 1009.91 1011.04 1012.05 1012.88 1013.50 1014.87 1016.13 1017.46 1018.72 1019.90 1020.98 1021.86 1022.75 1023.54 1024.08 1024.57 1025.14 1025.61 1026.04 1026.44 1026.87 1027.35 1027.45 1027.70 1028.15 1028.99 1029.24 1029.50 1029.95 1030.47
1009.82 1010.88 1012.14 1013.24 1013.68 1013.43 1013.52 1013.59 1014.59 1014.69 1013.99 1012.44 1009.70 1009.06 1008.64 1010.26 1011.12 1012.54 1013.42 1014.45 1015.99 1017.35 1018.46 1019.42 1020.36 1021.22 1022.11 1023.03 1023.81 1024.59 1025.30 1025.83 1026.34 1026.69 1026.98 1027.38 1027.97 1028.37 1028.54 1028.95 1029.48 1029.81 1030.22 1030.73
1010.37 1011.05 1012.61 1013.43 1012.85 1012.19 1013.68 1013.46 1013.24 1012.94 1012.45 1011.30 1009.64 1007.61 1006.99 1007.77 1009.31 1010.88 1012.55 1013.72 1014.89 1016.10 1017.27 1018.43 1019.59 1020.66 1021.56 1022.51 1023.34 1024.07 1024.75 1025.42 1026.17 1026.74 1027.28 1027.43 1027.96 1028.43 1028.65 1028.93 1029.41 1030.12 1030.59 1030.90
1009.91 1010.60 1011.21 1011.36 1011.63 1012.00 1011.53 1011.81 1012.34 1011.94 1011.91 1011.48 1010.28 1006.82 1007.36 1007.77 1008.46 1010.19 1011.87 1013.15 1014.34 1015.51 1016.59 1017.77 1019.05 1020.14 1021.02 1021.83 1022.69 1023.49 1024.33 1025.08 1025.86 1026.46 1026.95 1027.41 1028.09 1028.58 1028.78 1028.86 1029.54 1030.20 1030.45 1031.13
1009.80 1010.88 1011.86 1011.47 1012.30 1012.58 1011.82 1011.12 1011.07 1011.35 1011.50 1009.81 1010.08 1006.65 1007.90 1008.49 1009.07 1009.99 1011.05 1012.24 1013.50 1014.83 1016.20 1017.35 1018.50 1019.40 1020.37 1021.32 1022.15 1023.00 1023.92 1024.63 1025.38 1026.07 1026.68 1027.44 1027.90 1028.35 1028.49 1028.96 1029.62 1030.18 1030.31 1030.86
1008.81 1010.04 1009.61 1008.44 1008.18 1008.67 1010.04 1009.94 1010.34 1010.82 1010.34 1007.87 1006.96 1006.89 1008.08 1008.41 1008.88 1009.75 1010.51 1011.75 1012.95 1014.05 1015.16 1016.25 1017.31 1018.22 1019.57 1020.69 1021.38 1022.22 1023.28 1024.26 1025.04 1025.76 1026.41 1027.15 1027.84 1028.33 1028.50 1028.85 1029.50 1029.97 1030.50 1030.89
1009.46 1010.21 1010.19 1008.66 1008.30 1008.24 1008.63 1008.68 1009.18 1009.08 1006.62 1008.13 1003.73 1006.08 1006.54 1007.33 1008.22 1008.75 1009.82 1011.32 1012.56 1013.62 1014.58 1015.32 1016.30 1017.33 1018.39 1019.64 1020.49 1021.53 1022.44 1023.46 1024.42 1025.27 1026.02 1026.67 1027.32 1027.86 1028.30 1028.77 1029.49 1029.96 1030.68 1030.98
1010.22 1010.17 1010.36 1008.96 1008.46 1008.75 1008.48 1008.05 1007.53 1007.00 1006.86 1006.69 1005.41 1004.64 1005.59 1006.09 1007.70 1008.77 1009.63 1010.70 1011.81 1012.74 1013.61 1014.40 1015.42 1016.56 1017.54 1018.58 1019.61 1020.55 1021.50 1022.61 1023.63 1024.40 1025.32 1025.90 1027.02 1027.51 1028.06 1028.84 1029.58 1030.14 1030.70 1031.14
1011.00 1010.91 1010.75 1008.59 1008.85 1008.98 1008.48 1003.65 1006.97 1005.66 1005.64 1005.50 1005.56 1004.01 1006.67 1007.23 1008.22 1008.97 1009.69 1010.68 1011.59 1012.16 1012.96 1013.89 1014.72 1015.81 1016.84 1017.90 1019.07 1019.96 1020.69 1021.97 1023.27 1024.32 1025.14 1025.81 1026.70 1027.51 1027.99 1028.64 1029.20 1029.88 1030.33 1030.80
1009.85 1010.36 1010.31 1008.91 1008.99 1007.27 1002.59 1004.01 1004.92 1005.10 1004.97 1005.62 1005.82 1006.75 1007.31 1007.67 1008.58 1009.16 1009.81 1010.83 1011.45 1012.23 1013.02 1013.90 1014.82 1015.80 1016.98 1017.97 1019.08 1019.83 1020.63 1021.78 1022.92 1023.87 1024.75 1025.53 1026.22 1027.36 1028.00 1028.43 1028.89 1029.42 1029.90 1030.34
1009.60 1009.80 1009.51 1009.06 1007.66 1005.59 1004.12 1005.12 1005.10 1004.65 1003.64 1005.16 1006.30 1007.60 1008.51 1008.96 1009.49 1009.89 1010.47 1011.14 1011.50 1012.42 1013.30 1014.14 1015.01 1015.72 1016.90 1017.74 1018.50 1019.40 1020.56 1021.61 1022.68 1023.49 1024.24 1024.90 1025.59 1026.43 1027.24 1027.98 1028.48 1029.00 1029.54 1029.99
1010.20 1009.78 1009.35 1008.91 1007.53 1005.98 1004.63 1004.55 1005.06 1005.26 1005.23 1005.33 1006.59 1007.79 1008.81 1009.43 1010.22 1010.04 1010.67 1011.53 1012.27 1013.05 1013.82 1014.57 1015.40 1016.11 1016.92 1017.90 1018.73 1019.64 1020.53 1021.34 1021.99 1022.60 1023.08 1024.02 1024.81 1025.50 1026.11 1027.11 1027.96 1028.50 1028.93 1029.37
1010.06 1009.79 1008.70 1008.17 1007.39 1006.50 1006.17 1006.54 1006.52 1006.88 1006.75 1006.70 1007.15 1008.10 1008.93 1008.97 1009.57 1010.21 1010.89 1011.93 1012.69 1013.46 1014.27 1014.97 1015.71 1016.43 1017.03 1017.78 1018.61 1019.65 1020.44 1020.91 1020.79 1021.69 1022.54 1023.57 1024.27 1025.04 1025.66 1026.74 1027.48 1027.93 1028.69 1029.10
1007.78 1008.47 1008.34 1008.49 1008.08 1007.51 1006.93 1007.78 1007.46 1007.08 1007.34 1007.54 1008.09 1008.64 1008.92 1009.50 1010.20 1010.90 1011.66 1012.50 1013.29 1014.10 1014.93 1015.48 1016.15 1016.72 1017.39 1018.08 1018.76 1019.57 1020.14 1019.90 1020.72 1021.61 1022.58 1023.38 1024.22 1025.04 1025.77 1026.24 1027.03 1027.75 1028.33 1028.82
1007.41 1006.82 1007.16 1007.74 1007.96 1008.00 1007.99 1007.93 1007.68 1007.54 1007.65 1008.29 1008.77 1008.97 1009.55 1010.26 1010.99 1011.57 1012.23 1013.02 1013.75 1014.39 1015.19 1015.93 1016.57 1017.16 1017.75 1018.36 1018.96 1019.67 1019.58 1020.22 1020.92 1021.81 1022.68 1023.49 1024.31 1025.03 1025.58 1026.21 1026.82 1027.57 1027.98 1028.09
1006.96 1007.04 1007.00 1008.07 1008.80 1008.97 1008.94 1008.94 1008.40 1008.38 1008.53 1008.70 1009.01 1009.44 1009.88 1010.46 1011.42 1012.32 1012.97 1013.73 1014.30 1014.83 1015.50 1016.30 1017.17 1017.68 1018.14 1018.40 1018.86 1019.16 1019.78 1020.33 1021.15 1021.94 1022.60 1023.59 1024.57 1024.88 1025.53 1025.96 1026.34 1026.64 1026.72 1026.93
1007.05 1007.18 1007.57 1008.49 1009.06 1009.63 1010.11 1009.90 1009.15 1008.79 1009.18 1009.47 1009.78 1009.93 1010.21 1010.84 1011.90 1012.69 1013.51 1014.04 1014.77 1015.21 1015.88 1016.66 1017.33 1017.77 1018.07 1018.61 1018.85 1019.15 1019.82 1020.40 1021.18 1021.91 1022.45 1023.03 1024.09 1024.65 1025.00 1025.35 1025.39 1025.47 1025.57 1025.67
1006.73 1006.98 1007.00 1007.06 1007.78 1008.22 1008.84 1008.67 1008.66 1009.27 1009.49 1009.90 1010.25 1010.77 1011.14 1011.44 1012.19 1013.00 1013.87 1014.23 1015.00 1015.71 1016.25 1016.93 1017.38 1017.86 1018.30 1018.66 1019.02 1019.50 1019.84 1020.41 1021.09 1021.94 1022.50 1022.88 1023.57 1024.22 1024.55 1024.90 1025.03 1024.98 1025.06 1025.34
Thickness
5669 5665 5670 5680 5679 5683 5679 5677 5677 5688 5677 5664 5674 5679 5688 5675 5669 5673 5668 5663 5657 5649 5640 5636 5634 5635 5635 5632 5631 5630 5628 5627 5628 5628 5627 5623 5616 5608 5603 5598 5596 5595 5592 5591
5652 5658 5681 5681 5675 5672 5665 5663 5669 5679 5665 5653 5666 5671 5682 5684 5675 5672 5668 5661 5653 5640 5634 5629 5627 5625 5625 5624 5624 5623 5622 5622 5621 5618 5615 5613 5606 5598 5592 5587 5584 5582 5578 5576
5659 5669 5671 5662 5655 5651 5659 5656 5664 5661 5648 5647 5651 5655 5670 5685 5677 5665 5660 5656 5647 5638 5630 5623 5620 5618 5616 5614 5613 5613 5612 5610 5607 5604 5601 5598 5595 5591 5586 5578 5572 5566 5562 5559
5650 5666 5654 5649 5651 5651 5648 5662 5654 5649 5637 5639 5644 5642 5675 5687 5667 5654 5646 5644 5639 5634 5626 5619 5615 5611 5606 5603 5602 5602 5601 5599 5596 5594 5591 5590 5587 5579 5567 5562 5557 5553 5549 5546
5655 5642 5639 5642 5651 5649 5644 5644 5640 5638 5631 5628 5634 5617 5671 5679 5668 5660 5646 5638 5635 5629 5622 5614 5609 5603 5597 5594 5592 5591 5589 5586 5584 5582 5579 5576 5569 5563 5555 5548 5540 5534 5529 5526
5645 5635 5641 5646 5635 5638 5631 5624 5618 5616 5616 5610 5632 5632 5667 5672 5674 5670 5647 5636 5631 5623 5616 5608 5599 5592 5587 5582 5582 5580 5577 5573 5570 5567 5562 5557 5552 5545 5541 5535 5527 5519 5513 5507
5631 5632 5631 5629 5622 5615 5620 5614 5605 5601 5592 5609 5630 5633 5666 5678 5665 5669 5647 5634 5626 5615 5607 5599 5588 5584 5579 5573 5571 5568 5565 5561 5557 5553 5549 5543 5536 5528 5523 5518 5513 5506 5498 5489
5629 5628 5635 5631 5639 5629 5608 5617 5607 5591 5605 5617 5590 5616 5652 5663 5653 5644 5643 5630 5620 5610 5602 5592 5584 5578 5571 5564 5560 5556 5551 5547 5542 5537 5531 5526 5523 5514 5505 5497 5494 5490 5483 5473
5625 5628 5626 5626 5625 5625 5601 5595 5620 5588 5558 5577 5618 5631 5650 5630 5628 5626 5631 5623 5616 5607 5597 5587 5580 5573 5562 5555 5550 5546 5540 5534 5529 5523 5517 5510 5507 5503 5495 5483 5477 5471 5464 5456
5627 5615 5605 5599 5599 5604 5602 5609 5580 5581 5573 5588 5631 5634 5651 5626 5628 5619 5620 5616 5607 5597 5589 5583 5575 5566 5558 5549 5541 5534 5526 5519 5512 5507 5502 5496 5487 5480 5476 5469 5461 5454 5446 5437
5613 5606 5586 5581 5589 5603 5585 5584 5590 5597 5596 5597 5612 5638 5662 5656 5641 5625 5617 5613 5606 5597 5589 5579 5569 5559 5550 5541 5533 5525 5517 5509 5499 5491 5483 5479 5472 5465 5460 5454 5445 5434 5425 5416
5606 5599 5595 5592 5597 5594 5602 5595 5590 5586 5581 5588 5594 5639 5636 5644 5645 5628 5613 5606 5600 5592 5583 5573 5561 5550 5541 5534 5525 5515 5505 5497 5487 5480 5472 5464 5455 5448 5442 5437 5426 5415 5408 5396
5594 5573 5567 5576 5568 5564 5574 5592 5596 5594 5575 5588 5587 5635 5619 5619 5620 5619 5611 5603 5594 5583 5571 5562 5550 5540 5532 5522 5513 5504 5494 5486 5477 5467 5458 5449 5442 5433 5428 5419 5406 5395 5389 5378
5591 5569 5579 5602 5615 5607 5581 5586 5586 5578 5573 5601 5609 5625 5603 5607 5607 5602 5601 5594 5585 5574 5567 5555 5544 5536 5523 5511 5504 5495 5484 5472 5462 5453 5444 5434 5424 5415 5410 5400 5387 5379 5367 5356
5573 5558 5568 5591 5601 5600 5586 5586 5581 5576 5608 5582 5639 5615 5620 5610 5603 5603 5595 5584 5575 5563 5555 5548 5539 5529 5517 5505 5496 5484 5475 5462 5451 5439 5430 5421 5411 5402 5392 5380 5369 5360 5347 5335
5553 5552 5557 5568 5583 5576 5570 5584 5585 5587 5590 5590 5613 5620 5622 5618 5606 5594 5586 5577 5567 5557 5549 5542 5531 5518 5508 5498 5487 5476 5467 5454 5441 5432 5420 5409 5396 5385 5374 5361 5349 5338 5326 5316
5527 5530 5534 5563 5561 5555 5531 5600 5576 5594 5593 5597 5590 5624 5589 5586 5580 5576 5568 5562 5555 5550 5541 5531 5520 5510 5499 5489 5475 5466 5455 5441 5426 5415 5402 5391 5379 5366 5356 5343 5332 5320 5309 5299
5527 5523 5528 5551 5531 5540 5609 5601 5585 5584 5591 5583 5585 5563 5565 5568 5562 5559 5557 5546 5539 5532 5525 5514 5504 5496 5481 5471 5459 5450 5438 5425 5412 5400 5389 5375 5363 5348 5337 5328 5316 5305 5295 5285
5513 5519 5523 5532 5542 5564 5586 5554 5568 5572 5592 5581 5567 5548 5538 5531 5534 5541 5533 5529 5526 5515 5506 5497 5487 5479 5466 5457 5447 5435 5421 5410 5396 5385 5373 5360 5348 5338 5327 5315 5302 5292 5280 5271
5478 5495 5508 5505 5531 5544 5573 5562 5552 5558 5555 5561 5544 5533 5516 5520 5522 5535 5510 5497 5496 5490 5481 5473 5465 5457 5448 5437 5426 5414 5403 5391 5381 5371 5362 5350 5338 5329 5319 5303 5289 5280 5269 5258
5474 5478 5497 5514 5515 5525 5518 5511 5519 5528 5545 5513 5520 5512 5506 5518 5518 5501 5492 5483 5477 5469 5461 5454 5446 5436 5430 5419 5408 5397 5385 5376 5372 5360 5349 5337 5327 5314 5303 5288 5277 5266 5253 5242
5497 5488 5493 5494 5496 5509 5502 5491 5522 5515 5495 5497 5503 5499 5495 5493 5481 5476 5472 5464 5456 5447 5437 5431 5422 5415 5407 5397 5389 5379 5372 5368 5356 5344 5332 5321 5308 5296 5285 5274 5262 5249 5238 5227
5486 5501 5501 5498 5497 5463 5475 5477 5480 5484 5485 5479 5480 5480 5478 5470 5465 5458 5453 5445 5436 5429 5419 5410 5403 5395 5387 5377 5370 5363 5360 5347 5337 5324 5313 5301 5288 5278 5269 5257 5246 5233 5223 5216
5458 5458 5472 5462 5438 5440 5445 5447 5455 5461 5467 5463 5464 5460 5459 5455 5445 5435 5427 5420 5415 5406 5399 5390 5381 5373 5366 5359 5353 5350 5340 5330 5317 5305 5294 5282 5270 5262 5251 5242 5233 5224 5218 5209
5447 5443 5440 5421 5423 5421 5413 5419 5440 5446 5442 5441 5439 5439 5442 5436 5423 5417 5408 5402 5394 5389 5380 5372 5364 5357 5351 5342 5337 5330 5321 5311 5301 5290 5279 5269 5257 5247 5238 5230 5224 5217 5210 5203
5430 5431 5432 5432 5424 5426 5420 5426 5432 5427 5428 5423 5421 5415 5411 5411 5404 5397 5388 5383 5375 5368 5360 5351 5345 5338 5331 5325 5319 5310 5302 5292 5284 5274 5264 5256 5244 5233 5225 5217 5210 5205 5198 5191